Location: Observatory
(52.1446°N, 0.4624°W)
Time: 15:17:42
(UTC+00:00)

ISS - Pass Details

Date: 11 November 2018
Orbit: 401 x 408 km, 51.6° (Epoch: 20 November)

Event Time Altitude Azimuth Distance (km) Brightness Sun altitude
Exits shadow 05:41:15 22° 237° (WSW) 945 -2.4 -14.4°
Maximum altitude 05:42:07 25° 211° (SSW) 867 -2.4 -14.2°
Drops below altitude 10° 05:44:52 10° 154° (SSE) 1,460 -0.5 -13.8°
Sets 05:47:10 0° 141° (SE) 2,319 0.9 -13.5°
